KZR131 UAAA-UTDD

Flight info

Callsign KZR131
Flight time N/A
Altitude 34000
Route N0490F340 LAKEL L135 VADER B350 JD
Aircraft A21N/M-SDE2E3FGHIRWXY/LB1

Departure

Time 2026-04-21 14:49
Airport Almaty International Airport (UAAA)

Arrival

Time N/A
Airport Dushanbe International Airport (UTDD)
Time Latitude Longitude Altitude Speed Heading
2026-04-21 14:16 43.34682 77.01310 2232 ft 0 kts 246°
2026-04-21 14:40 43.34684 77.01315 2232 ft 2 kts 246°
2026-04-21 14:41 43.34692 77.01338 2232 ft 3 kts 243°
2026-04-21 14:41 43.34701 77.01362 2232 ft 3 kts 243°
2026-04-21 14:41 43.34708 77.01383 2232 ft 3 kts 236°
2026-04-21 14:41 43.34721 77.01399 2232 ft 3 kts 192°
2026-04-21 14:42 43.34739 77.01400 2232 ft 3 kts 164°
2026-04-21 14:42 43.34747 77.01396 2232 ft 0 kts 159°
2026-04-21 14:46 43.34745 77.01398 2232 ft 3 kts 158°
2026-04-21 14:46 43.34707 77.01420 2232 ft 7 kts 156°
2026-04-21 14:46 43.34631 77.01461 2232 ft 15 kts 172°
2026-04-21 14:46 43.34530 77.01499 2232 ft 16 kts 155°
2026-04-21 14:47 43.34426 77.01565 2233 ft 17 kts 155°
2026-04-21 14:47 43.34314 77.01636 2233 ft 18 kts 156°
2026-04-21 14:47 43.34244 77.01679 2233 ft 0 kts 155°
2026-04-21 14:47 43.34243 77.01680 2233 ft 1 kts 155°
2026-04-21 14:48 43.34206 77.01703 2233 ft 11 kts 155°
2026-04-21 14:48 43.34143 77.01759 2233 ft 4 kts 106°
2026-04-21 14:48 43.34153 77.01802 2232 ft 0 kts 54°
2026-04-21 14:48 43.34192 77.01878 2233 ft 31 kts 55°
2026-04-21 14:49 43.34440 77.02381 2234 ft 94 kts 56°
2026-04-21 14:49 43.34937 77.03380 2230 ft 158 kts 56°
2026-04-21 14:49 43.35623 77.04784 2429 ft 184 kts 56°
2026-04-21 14:49 43.36352 77.06155 3236 ft 174 kts 54°
2026-04-21 14:50 43.37058 77.07513 3885 ft 176 kts 55°
2026-04-21 14:50 43.37806 77.08977 4241 ft 201 kts 55°
2026-04-21 14:50 43.38659 77.10638 4528 ft 231 kts 55°
2026-04-21 14:50 43.39641 77.12539 4994 ft 252 kts 55°
2026-04-21 14:51 43.40712 77.14597 4869 ft 297 kts 53°
2026-04-21 14:51 43.42159 77.16841 4999 ft 328 kts 35°
2026-04-21 14:51 43.44292 77.17968 5771 ft 332 kts
2026-04-21 14:51 43.46502 77.17479 6993 ft 318 kts 332°
2026-04-21 14:52 43.48287 77.15800 8243 ft 306 kts 319°
2026-04-21 14:52 43.49931 77.14022 9573 ft 296 kts 320°
2026-04-21 14:52 43.51583 77.12391 10768 ft 292 kts 320°
2026-04-21 14:52 43.53133 77.10514 11366 ft 304 kts 304°
2026-04-21 14:53 43.54078 77.07847 11790 ft 319 kts 279°
2026-04-21 14:53 43.54319 77.04737 12211 ft 334 kts 270°
2026-04-21 14:53 43.54302 77.01510 12973 ft 338 kts 262°
2026-04-21 14:53 43.53803 76.98352 13901 ft 338 kts 249°
2026-04-21 14:54 43.52710 76.95476 14656 ft 343 kts 233°
2026-04-21 14:54 43.50970 76.93176 15330 ft 354 kts 215°
2026-04-21 14:54 43.48678 76.91811 15998 ft 368 kts 195°
2026-04-21 14:54 43.46089 76.91429 16667 ft 379 kts 184°
2026-04-21 14:55 43.43428 76.91398 17332 ft 385 kts 182°
2026-04-21 14:55 43.40759 76.91456 17984 ft 390 kts 181°
2026-04-21 14:55 43.38028 76.91506 18578 ft 394 kts 182°
2026-04-21 14:55 43.35271 76.91535 19157 ft 398 kts 182°
2026-04-21 14:56 43.32493 76.91545 19766 ft 401 kts 182°
2026-04-21 14:56 43.29697 76.91544 20350 ft 403 kts 182°
2026-04-21 14:56 43.26876 76.91538 20904 ft 406 kts 182°
2026-04-21 14:56 43.24050 76.91431 21451 ft 406 kts 187°
2026-04-21 14:57 43.21277 76.90780 21967 ft 403 kts 198°
2026-04-21 14:57 43.18675 76.89422 22529 ft 398 kts 209°
2026-04-21 14:57 43.16303 76.87491 23126 ft 396 kts 214°
2026-04-21 14:57 43.14012 76.85403 23731 ft 396 kts 216°
2026-04-21 14:58 43.11752 76.83217 24163 ft 399 kts 218°
2026-04-21 14:58 43.09504 76.80964 24562 ft 403 kts 219°
2026-04-21 14:58 43.07239 76.78660 24975 ft 407 kts 219°
2026-04-21 14:58 43.04977 76.76332 25493 ft 408 kts 219°
2026-04-21 14:59 43.02730 76.74015 25841 ft 411 kts 220°
2026-04-21 14:59 43.00427 76.71642 26087 ft 417 kts 220°
2026-04-21 14:59 42.98092 76.69246 26435 ft 421 kts 220°
2026-04-21 14:59 42.95731 76.66858 26732 ft 423 kts 220°
2026-04-21 15:00 42.93351 76.64465 27074 ft 426 kts 221°
2026-04-21 15:00 42.90959 76.62048 27428 ft 428 kts 221°
2026-04-21 15:00 42.88556 76.59618 27644 ft 431 kts 221°
2026-04-21 15:00 42.86142 76.57167 27937 ft 433 kts 222°
2026-04-21 15:01 42.83714 76.54707 28218 ft 436 kts 222°
2026-04-21 15:01 42.81263 76.52223 28504 ft 441 kts 223°
2026-04-21 15:01 42.78791 76.49715 28745 ft 444 kts 222°
2026-04-21 15:01 42.76314 76.47212 29192 ft 442 kts 222°
2026-04-21 15:02 42.73872 76.44744 29692 ft 443 kts 222°
2026-04-21 15:02 42.71399 76.42249 30068 ft 442 kts 223°
2026-04-21 15:02 42.68924 76.39751 30386 ft 443 kts 221°
2026-04-21 15:02 42.66418 76.37332 30732 ft 441 kts 220°
2026-04-21 15:03 42.63915 76.34948 31065 ft 437 kts 221°
2026-04-21 15:03 42.61439 76.32553 31417 ft 435 kts 221°
2026-04-21 15:03 42.58992 76.30166 31720 ft 432 kts 221°
2026-04-21 15:03 42.56558 76.27774 31953 ft 432 kts 222°
2026-04-21 15:04 42.54138 76.25375 32234 ft 430 kts 222°
2026-04-21 15:04 42.51743 76.22981 32579 ft 426 kts 223°
2026-04-21 15:04 42.49359 76.20587 32921 ft 423 kts 223°
2026-04-21 15:04 42.47000 76.18213 33229 ft 421 kts 223°
2026-04-21 15:05 42.44677 76.15815 33484 ft 416 kts 227°
2026-04-21 15:05 42.40893 76.10250 33992 ft 396 kts 238°
2026-04-21 15:05 42.39275 76.07253 34033 ft 392 kts 239°
2026-04-21 15:06 42.36179 76.01223 34040 ft 389 kts 241°
2026-04-21 15:06 42.33163 75.95181 34069 ft 389 kts 239°